Time,TemperatureF,DewpointF,PressureIn,WindDirection,WindDirectionDegrees,WindSpeedMPH,WindSpeedGustMPH,Humidity,HourlyPrecipIn,Conditions,Clouds,dailyrainin,SoftwareType,DateUTC
2013-01-01 00:00:00,8.5,3.6,30.32,SSE,147,2.0,3.0,80,0.00,,,0.00,WeatherCatV1.10B1784,2013-01-01 06:00:00,
2013-01-01 00:05:00,8.5,3.9,30.32,SSE,147,1.0,2.0,81,0.00,,,0.00,WeatherCatV1.10B1784,2013-01-01 06:05:00,
2013-01-01 00:10:00,8.4,3.5,30.32,SSE,147,0.0,2.0,80,0.00,,,0.00,WeatherCatV1.10B1784,2013-01-01 06:10:00,
2013-01-01 00:15:00,8.4,3.5,30.32,SSE,147,0.0,1.0,80,0.00,,,0.00,WeatherCatV1.10B1784,2013-01-01 06:15:00,
2013-01-01 00:20:00,8.5,3.9,30.32,SSE,147,0.0,1.0,81,0.00,,,0.00,WeatherCatV1.10B1784,2013-01-01 06:20:00,
2013-01-01 00:25:00,8.5,3.9,30.32,SSE,147,0.0,0.0,81,0.00,,,0.00,WeatherCatV1.10B1784,2013-01-01 06:25:00,
2013-01-01 00:30:00,8.6,4.0,30.32,SSE,147,0.0,0.0,81,0.00,,,0.00,WeatherCatV1.10B1784,2013-01-01 06:30:00,
2013-01-01 00:35:00,8.6,4.0,30.32,SSE,147,1.0,3.0,81,0.00,,,0.00,WeatherCatV1.10B1784,2013-01-01 06:35:00,
2013-01-01 00:40:00,8.5,3.6,30.32,SSE,147,0.0,2.0,80,0.00,,,0.00,WeatherCatV1.10B1784,2013-01-01 06:40:00,
2013-01-01 00:45:00,8.4,3.8,30.32,SSE,147,0.0,1.0,81,0.00,,,0.00,WeatherCatV1.10B1784,2013-01-01 06:45:00,
2013-01-01 00:50:00,8.3,3.7,30.32,SSE,147,0.0,0.0,81,0.00,,,0.00,WeatherCatV1.10B1784,2013-01-01 06:50:00,
2013-01-01 00:55:00,8.4,3.8,30.32,SSE,147,2.0,2.0,81,0.00,,,0.00,WeatherCatV1.10B1784,2013-01-01 06:55:00,
2013-01-01 01:00:00,8.4,4.1,30.32,SSE,147,3.0,4.0,82,0.00,,,0.00,WeatherCatV1.10B1784,2013-01-01 07:00:00,
2013-01-01 01:05:00,8.3,3.7,30.32,SE,145,1.0,3.0,81,0.00,,,0.00,WeatherCatV1.10B1784,2013-01-01 07:05:00,
2013-01-01 01:10:00,8.3,4.0,30.32,SE,144,0.0,1.0,82,0.00,,,0.00,WeatherCatV1.10B1784,2013-01-01 07:10:00,
2013-01-01 01:15:00,8.4,4.1,30.32,SE,144,0.0,1.0,82,0.00,,,0.00,WeatherCatV1.10B1784,2013-01-01 07:15:00,
2013-01-01 01:20:00,8.5,4.2,30.32,SE,144,0.0,3.0,82,0.00,,,0.00,WeatherCatV1.10B1784,2013-01-01 07:20:00,
2013-01-01 01:25:00,8.4,3.8,30.32,SE,144,0.0,3.0,81,0.00,,,0.00,WeatherCatV1.10B1784,2013-01-01 07:25:00,
2013-01-01 01:30:00,8.3,3.4,30.32,SE,144,0.0,0.0,80,0.00,,,0.00,WeatherCatV1.10B1784,2013-01-01 07:30:00,
2013-01-01 01:35:00,8.2,3.3,30.32,SE,144,0.0,2.0,80,0.00,,,0.00,WeatherCatV1.10B1784,2013-01-01 07:35:00,
2013-01-01 01:40:00,8.2,3.3,30.32,SE,144,2.0,3.0,80,0.00,,,0.00,WeatherCatV1.10B1784,2013-01-01 07:40:00,
2013-01-01 01:45:00,8.3,3.4,30.32,SE,144,0.0,1.0,80,0.00,,,0.00,WeatherCatV1.10B1784,2013-01-01 07:45:00,
2013-01-01 01:50:00,8.3,3.4,30.31,SE,144,0.0,0.0,80,0.00,,,0.00,WeatherCatV1.10B1784,2013-01-01 07:50:00,
2013-01-01 01:55:00,8.4,3.5,30.31,SE,144,2.0,2.0,80,0.00,,,0.00,WeatherCatV1.10B1784,2013-01-01 07:55:00,
2013-01-01 02:00:00,8.5,3.6,30.32,SE,144,0.0,0.0,80,0.00,,,0.00,WeatherCatV1.10B1784,2013-01-01 08:00:00,
2013-01-01 02:05:00,8.5,3.4,30.32,SE,144,1.0,1.0,79,0.00,,,0.00,WeatherCatV1.10B1784,2013-01-01 08:05:00,
2013-01-01 02:10:00,8.5,3.1,30.32,SE,137,3.0,4.0,78,0.00,,,0.00,WeatherCatV1.10B1784,2013-01-01 08:10:00,
2013-01-01 02:15:00,8.4,3.0,30.32,SE,136,1.0,4.0,78,0.00,,,0.00,WeatherCatV1.10B1784,2013-01-01 08:15:00,
2013-01-01 02:20:00,8.5,3.4,30.32,SE,136,1.0,2.0,79,0.00,,,0.00,WeatherCatV1.10B1784,2013-01-01 08:20:00,
2013-01-01 02:25:00,8.6,3.4,30.32,SE,136,1.0,2.0,79,0.00,,,0.00,WeatherCatV1.10B1784,2013-01-01 08:25:00,
2013-01-01 02:30:00,8.7,3.5,30.32,SE,136,0.0,2.0,79,0.00,,,0.00,WeatherCatV1.10B1784,2013-01-01 08:30:00,
2013-01-01 02:35:00,8.7,3.5,30.33,SE,136,0.0,0.0,79,0.00,,,0.00,WeatherCatV1.10B1784,2013-01-01 08:35:00,
2013-01-01 02:40:00,8.8,3.6,30.33,SE,136,0.0,0.0,79,0.00,,,0.00,WeatherCatV1.10B1784,2013-01-01 08:40:00,
2013-01-01 02:45:00,8.9,4.0,30.33,SE,136,0.0,1.0,80,0.00,,,0.00,WeatherCatV1.10B1784,2013-01-01 08:45:00,
2013-01-01 02:50:00,8.9,4.0,30.33,SE,136,0.0,1.0,80,0.00,,,0.00,WeatherCatV1.10B1784,2013-01-01 08:50:00,
2013-01-01 02:55:00,9.1,4.5,30.33,SE,136,2.0,3.0,81,0.00,,,0.00,WeatherCatV1.10B1784,2013-01-01 08:55:00,
2013-01-01 03:00:00,9.2,4.6,30.33,SE,136,0.0,1.0,81,0.00,,,0.00,WeatherCatV1.10B1784,2013-01-01 09:00:00,
2013-01-01 03:05:00,9.2,4.6,30.33,SE,135,1.0,2.0,81,0.00,,,0.00,WeatherCatV1.10B1784,2013-01-01 09:05:00,
2013-01-01 03:10:00,9.3,4.7,30.33,SE,135,0.0,0.0,81,0.00,,,0.00,WeatherCatV1.10B1784,2013-01-01 09:10:00,
2013-01-01 03:15:00,9.4,4.8,30.33,SE,131,3.0,3.0,81,0.00,,,0.00,WeatherCatV1.10B1784,2013-01-01 09:15:00,
2013-01-01 03:20:00,9.4,4.8,30.33,SE,132,0.0,2.0,81,0.00,,,0.00,WeatherCatV1.10B1784,2013-01-01 09:20:00,
2013-01-01 03:25:00,9.4,4.8,30.33,SE,132,1.0,2.0,81,0.00,,,0.00,WeatherCatV1.10B1784,2013-01-01 09:25:00,
2013-01-01 03:30:00,9.4,4.8,30.33,SE,132,1.0,4.0,81,0.00,,,0.00,WeatherCatV1.10B1784,2013-01-01 09:30:00,
2013-01-01 03:35:00,9.4,4.8,30.32,SSE,153,1.0,5.0,81,0.00,,,0.00,WeatherCatV1.10B1784,2013-01-01 09:35:00,
2013-01-01 03:40:00,9.4,5.0,30.32,SSE,153,0.0,1.0,82,0.00,,,0.00,WeatherCatV1.10B1784,2013-01-01 09:40:00,
2013-01-01 03:45:00,9.4,5.0,30.32,SSE,153,0.0,1.0,82,0.00,,,0.00,WeatherCatV1.10B1784,2013-01-01 09:45:00,
2013-01-01 03:50:00,9.5,5.1,30.32,SSE,153,0.0,0.0,82,0.00,,,0.00,WeatherCatV1.10B1784,2013-01-01 09:50:00,
2013-01-01 03:55:00,9.5,5.1,30.32,SSE,153,1.0,2.0,82,0.00,,,0.00,WeatherCatV1.10B1784,2013-01-01 09:55:00,
2013-01-01 04:00:00,9.6,5.5,30.32,SSE,153,0.0,2.0,83,0.00,,,0.00,WeatherCatV1.10B1784,2013-01-01 10:00:00,
2013-01-01 04:05:00,9.8,5.7,30.32,SSE,153,2.0,2.0,83,0.00,,,0.00,WeatherCatV1.10B1784,2013-01-01 10:05:00,
2013-01-01 04:10:00,9.9,5.8,30.32,SSE,153,0.0,1.0,83,0.00,,,0.00,WeatherCatV1.10B1784,2013-01-01 10:10:00,
2013-01-01 04:15:00,10.0,5.9,30.32,SSE,152,0.0,3.0,83,0.00,,,0.00,WeatherCatV1.10B1784,2013-01-01 10:15:00,
2013-01-01 04:20:00,10.1,6.0,30.32,SSE,152,1.0,2.0,83,0.00,,,0.00,WeatherCatV1.10B1784,2013-01-01 10:20:00,
2013-01-01 04:25:00,10.3,6.2,30.32,SSE,152,0.0,1.0,83,0.00,,,0.00,WeatherCatV1.10B1784,2013-01-01 10:25:00,
2013-01-01 04:30:00,10.4,6.5,30.32,SSE,149,2.0,5.0,84,0.00,,,0.00,WeatherCatV1.10B1784,2013-01-01 10:30:00,
2013-01-01 04:35:00,10.5,6.4,30.32,SSE,149,2.0,2.0,83,0.00,,,0.00,WeatherCatV1.10B1784,2013-01-01 10:35:00,
2013-01-01 04:40:00,10.5,6.4,30.32,SSE,149,0.0,1.0,83,0.00,,,0.00,WeatherCatV1.10B1784,2013-01-01 10:40:00,
2013-01-01 04:45:00,10.6,6.5,30.32,SSE,160,4.0,6.0,83,0.00,,,0.00,WeatherCatV1.10B1784,2013-01-01 10:45:00,
2013-01-01 04:50:00,10.5,6.4,30.31,SSE,162,0.0,5.0,83,0.00,,,0.00,WeatherCatV1.10B1784,2013-01-01 10:50:00,
2013-01-01 04:55:00,10.5,6.4,30.31,SSE,150,3.0,6.0,83,0.00,,,0.00,WeatherCatV1.10B1784,2013-01-01 10:55:00,
2013-01-01 05:00:00,10.5,6.4,30.31,SSE,151,1.0,2.0,83,0.00,,,0.00,WeatherCatV1.10B1784,2013-01-01 11:00:00,
2013-01-01 05:05:00,10.5,6.6,30.31,SSE,151,0.0,1.0,84,0.00,,,0.00,WeatherCatV1.10B1784,2013-01-01 11:05:00,
2013-01-01 05:10:00,10.5,6.6,30.31,SSE,151,0.0,1.0,84,0.00,,,0.00,WeatherCatV1.10B1784,2013-01-01 11:10:00,
2013-01-01 05:15:00,10.5,6.6,30.31,SSE,151,0.0,2.0,84,0.00,,,0.00,WeatherCatV1.10B1784,2013-01-01 11:15:00,
2013-01-01 05:20:00,10.5,6.6,30.31,SSE,151,0.0,1.0,84,0.00,,,0.00,WeatherCatV1.10B1784,2013-01-01 11:20:00,
2013-01-01 05:25:00,10.5,6.4,30.31,SSE,151,2.0,2.0,83,0.00,,,0.00,WeatherCatV1.10B1784,2013-01-01 11:25:00,
2013-01-01 05:30:00,10.5,6.4,30.31,SSE,151,0.0,0.0,83,0.00,,,0.00,WeatherCatV1.10B1784,2013-01-01 11:30:00,
2013-01-01 05:35:00,10.5,6.4,30.31,SSE,151,3.0,3.0,83,0.00,,,0.00,WeatherCatV1.10B1784,2013-01-01 11:35:00,
2013-01-01 05:40:00,10.5,6.4,30.31,SSE,151,0.0,1.0,83,0.00,,,0.00,WeatherCatV1.10B1784,2013-01-01 11:40:00,
2013-01-01 05:45:00,10.5,6.6,30.31,SSE,151,2.0,2.0,84,0.00,,,0.00,WeatherCatV1.10B1784,2013-01-01 11:45:00,
2013-01-01 05:50:00,10.5,6.6,30.30,SSE,151,0.0,3.0,84,0.00,,,0.00,WeatherCatV1.10B1784,2013-01-01 11:50:00,
2013-01-01 05:55:00,10.5,6.6,30.30,SSE,151,0.0,2.0,84,0.00,,,0.00,WeatherCatV1.10B1784,2013-01-01 11:55:00,
2013-01-01 06:00:00,10.6,6.7,30.30,SSE,151,1.0,2.0,84,0.00,,,0.00,WeatherCatV1.10B1784,2013-01-01 12:00:00,
2013-01-01 06:05:00,10.7,6.8,30.30,SSE,151,0.0,1.0,84,0.00,,,0.00,WeatherCatV1.10B1784,2013-01-01 12:05:00,
2013-01-01 06:10:00,10.7,6.8,30.31,SSE,151,0.0,0.0,84,0.00,,,0.00,WeatherCatV1.10B1784,2013-01-01 12:10:00,
2013-01-01 06:15:00,10.7,7.1,30.31,SSE,151,0.0,1.0,85,0.00,,,0.00,WeatherCatV1.10B1784,2013-01-01 12:15:00,
2013-01-01 06:20:00,10.8,7.2,30.30,SSE,151,0.0,0.0,85,0.00,,,0.00,WeatherCatV1.10B1784,2013-01-01 12:20:00,
2013-01-01 06:25:00,11.0,7.4,30.30,SSE,151,0.0,0.0,85,0.00,,,0.00,WeatherCatV1.10B1784,2013-01-01 12:25:00,
2013-01-01 06:30:00,11.1,7.5,30.30,SSE,151,1.0,2.0,85,0.00,,,0.00,WeatherCatV1.10B1784,2013-01-01 12:30:00,
2013-01-01 06:35:00,11.3,7.7,30.30,SSE,151,0.0,0.0,85,0.00,,,0.00,WeatherCatV1.10B1784,2013-01-01 12:35:00,
2013-01-01 06:40:00,11.4,7.8,30.30,SSE,151,0.0,1.0,85,0.00,,,0.00,WeatherCatV1.10B1784,2013-01-01 12:40:00,
2013-01-01 06:45:00,11.6,8.0,30.30,SSE,151,1.0,2.0,85,0.00,,,0.00,WeatherCatV1.10B1784,2013-01-01 12:45:00,
2013-01-01 06:50:00,11.8,8.2,30.30,SSE,151,1.0,1.0,85,0.00,,,0.00,WeatherCatV1.10B1784,2013-01-01 12:50:00,
2013-01-01 06:55:00,11.9,8.3,30.30,SSE,151,0.0,0.0,85,0.00,,,0.00,WeatherCatV1.10B1784,2013-01-01 12:55:00,
2013-01-01 07:00:00,12.0,8.4,30.30,SSE,151,0.0,0.0,85,0.00,,,0.00,WeatherCatV1.10B1784,2013-01-01 13:00:00,
2013-01-01 07:05:00,12.1,8.5,30.30,SSE,151,0.0,1.0,85,0.00,,,0.00,WeatherCatV1.10B1784,2013-01-01 13:05:00,
2013-01-01 07:10:00,12.2,8.6,30.30,SSE,151,0.0,0.0,85,0.00,,,0.00,WeatherCatV1.10B1784,2013-01-01 13:10:00,
2013-01-01 07:15:00,12.2,8.6,30.30,SSE,151,1.0,1.0,85,0.00,,,0.00,WeatherCatV1.10B1784,2013-01-01 13:15:00,
2013-01-01 07:20:00,12.2,8.6,30.30,SSE,151,0.0,0.0,85,0.00,,,0.00,WeatherCatV1.10B1784,2013-01-01 13:20:00,
2013-01-01 07:25:00,12.3,8.7,30.29,SSE,151,0.0,3.0,85,0.00,,,0.00,WeatherCatV1.10B1784,2013-01-01 13:25:00,
2013-01-01 07:30:00,12.3,8.7,30.29,SSE,151,0.0,0.0,85,0.00,,,0.00,WeatherCatV1.10B1784,2013-01-01 13:30:00,
2013-01-01 07:35:00,12.5,8.9,30.29,SSE,151,1.0,2.0,85,0.00,,,0.00,WeatherCatV1.10B1784,2013-01-01 13:35:00,
2013-01-01 07:40:00,12.5,9.1,30.29,SSE,151,0.0,0.0,86,0.00,,,0.00,WeatherCatV1.10B1784,2013-01-01 13:40:00,
2013-01-01 07:45:00,12.6,9.2,30.30,SSE,151,0.0,0.0,86,0.00,,,0.00,WeatherCatV1.10B1784,2013-01-01 13:45:00,
2013-01-01 07:50:00,12.7,9.3,30.29,SSE,151,1.0,1.0,86,0.00,,,0.00,WeatherCatV1.10B1784,2013-01-01 13:50:00,
2013-01-01 07:55:00,12.8,9.4,30.29,SSE,151,0.0,2.0,86,0.00,,,0.00,WeatherCatV1.10B1784,2013-01-01 13:55:00,
2013-01-01 08:00:00,12.9,9.5,30.29,SSE,151,0.0,1.0,86,0.00,,,0.00,WeatherCatV1.10B1784,2013-01-01 14:00:00,
2013-01-01 08:05:00,13.0,9.6,30.29,SSE,151,1.0,1.0,86,0.00,,,0.00,WeatherCatV1.10B1784,2013-01-01 14:05:00,
2013-01-01 08:10:00,13.0,9.6,30.29,SSE,151,0.0,1.0,86,0.00,,,0.00,WeatherCatV1.10B1784,2013-01-01 14:10:00,
2013-01-01 08:15:00,13.2,9.8,30.29,SSE,151,0.0,1.0,86,0.00,,,0.00,WeatherCatV1.10B1784,2013-01-01 14:15:00,
2013-01-01 08:20:00,13.2,9.8,30.29,SSE,151,0.0,0.0,86,0.00,,,0.00,WeatherCatV1.10B1784,2013-01-01 14:20:00,
2013-01-01 08:25:00,13.4,10.0,30.30,SSE,151,0.0,0.0,86,0.00,,,0.00,WeatherCatV1.10B1784,2013-01-01 14:25:00,
2013-01-01 08:30:00,13.5,10.1,30.29,SSE,151,2.0,2.0,86,0.00,,,0.00,WeatherCatV1.10B1784,2013-01-01 14:30:00,
2013-01-01 08:35:00,13.6,10.2,30.29,SSE,151,0.0,2.0,86,0.00,,,0.00,WeatherCatV1.10B1784,2013-01-01 14:35:00,
2013-01-01 08:40:00,13.6,10.2,30.29,SSE,151,0.0,0.0,86,0.00,,,0.00,WeatherCatV1.10B1784,2013-01-01 14:40:00,
2013-01-01 08:45:00,13.7,10.0,30.29,SSE,151,0.0,2.0,85,0.00,,,0.00,WeatherCatV1.10B1784,2013-01-01 14:45:00,
2013-01-01 08:50:00,13.9,10.5,30.29,SSE,151,0.0,1.0,86,0.00,,,0.00,WeatherCatV1.10B1784,2013-01-01 14:50:00,
2013-01-01 08:55:00,14.0,10.6,30.30,SSE,151,2.0,3.0,86,0.00,,,0.00,WeatherCatV1.10B1784,2013-01-01 14:55:00,
2013-01-01 09:00:00,14.0,10.3,30.29,SSE,151,0.0,1.0,85,0.00,,,0.00,WeatherCatV1.10B1784,2013-01-01 15:00:00,
2013-01-01 09:05:00,14.1,10.7,30.30,SSE,151,0.0,0.0,86,0.00,,,0.00,WeatherCatV1.10B1784,2013-01-01 15:05:00,
2013-01-01 09:10:00,14.2,10.8,30.29,SSE,151,0.0,0.0,86,0.00,,,0.00,WeatherCatV1.10B1784,2013-01-01 15:10:00,
2013-01-01 09:15:00,14.4,11.0,30.30,SSE,151,0.0,1.0,86,0.00,,,0.00,WeatherCatV1.10B1784,2013-01-01 15:15:00,
2013-01-01 09:20:00,14.5,11.1,30.30,SSE,151,0.0,1.0,86,0.00,,,0.00,WeatherCatV1.10B1784,2013-01-01 15:20:00,
2013-01-01 09:25:00,14.7,11.3,30.30,SSE,151,0.0,0.0,86,0.00,,,0.00,WeatherCatV1.10B1784,2013-01-01 15:25:00,
2013-01-01 09:30:00,14.9,11.5,30.30,SSE,151,0.0,0.0,86,0.00,,,0.00,WeatherCatV1.10B1784,2013-01-01 15:30:00,
2013-01-01 09:35:00,15.1,11.7,30.30,SSE,151,0.0,0.0,86,0.00,,,0.00,WeatherCatV1.10B1784,2013-01-01 15:35:00,
2013-01-01 09:40:00,15.2,11.8,30.30,SSE,151,0.0,1.0,86,0.00,,,0.00,WeatherCatV1.10B1784,2013-01-01 15:40:00,
2013-01-01 09:45:00,15.4,12.0,30.30,SSE,151,0.0,1.0,86,0.00,,,0.00,WeatherCatV1.10B1784,2013-01-01 15:45:00,
2013-01-01 09:50:00,15.6,11.9,30.30,SSE,151,1.0,1.0,85,0.00,,,0.00,WeatherCatV1.10B1784,2013-01-01 15:50:00,
2013-01-01 09:55:00,15.7,12.0,30.30,SSE,151,0.0,1.0,85,0.00,,,0.00,WeatherCatV1.10B1784,2013-01-01 15:55:00,
2013-01-01 10:00:00,15.6,11.9,30.29,SSE,151,3.0,3.0,85,0.00,,,0.00,WeatherCatV1.10B1784,2013-01-01 16:00:00,
2013-01-01 10:05:00,15.6,11.9,30.29,SSE,151,0.0,2.0,85,0.00,,,0.00,WeatherCatV1.10B1784,2013-01-01 16:05:00,
2013-01-01 10:10:00,15.6,11.9,30.30,SSE,151,1.0,1.0,85,0.00,,,0.00,WeatherCatV1.10B1784,2013-01-01 16:10:00,
2013-01-01 10:15:00,15.6,11.9,30.30,SSE,151,1.0,2.0,85,0.00,,,0.00,WeatherCatV1.10B1784,2013-01-01 16:15:00,
2013-01-01 10:20:00,15.7,12.3,30.30,SSE,151,2.0,2.0,86,0.00,,,0.00,WeatherCatV1.10B1784,2013-01-01 16:20:00,
2013-01-01 10:25:00,15.9,12.5,30.30,SSE,151,2.0,3.0,86,0.00,,,0.00,WeatherCatV1.10B1784,2013-01-01 16:25:00,
2013-01-01 10:30:00,16.0,12.6,30.30,SSE,150,1.0,2.0,86,0.00,,,0.00,WeatherCatV1.10B1784,2013-01-01 16:30:00,
2013-01-01 10:35:00,15.9,12.5,30.30,SSE,150,0.0,2.0,86,0.00,,,0.00,WeatherCatV1.10B1784,2013-01-01 16:35:00,
2013-01-01 10:40:00,16.0,12.8,30.30,SSE,151,2.0,3.0,87,0.00,,,0.00,WeatherCatV1.10B1784,2013-01-01 16:40:00,
2013-01-01 10:45:00,16.2,13.0,30.30,SSE,151,0.0,1.0,87,0.00,,,0.00,WeatherCatV1.10B1784,2013-01-01 16:45:00,
2013-01-01 10:50:00,16.4,13.5,30.30,SSE,151,0.0,3.0,88,0.00,,,0.00,WeatherCatV1.10B1784,2013-01-01 16:50:00,
2013-01-01 10:55:00,16.6,13.7,30.29,SSE,150,1.0,4.0,88,0.00,,,0.00,WeatherCatV1.10B1784,2013-01-01 16:55:00,
2013-01-01 11:00:00,16.7,13.5,30.29,SE,141,2.0,4.0,87,0.00,,,0.00,WeatherCatV1.10B1784,2013-01-01 17:00:00,
2013-01-01 11:05:00,16.8,13.6,30.29,SE,128,2.0,8.0,87,0.00,,,0.00,WeatherCatV1.10B1784,2013-01-01 17:05:00,
2013-01-01 11:10:00,16.7,13.5,30.29,South,170,2.0,3.0,87,0.00,,,0.00,WeatherCatV1.10B1784,2013-01-01 17:10:00,
2013-01-01 11:15:00,17.0,14.1,30.29,ESE,112,3.0,5.0,88,0.00,,,0.00,WeatherCatV1.10B1784,2013-01-01 17:15:00,
2013-01-01 11:20:00,17.1,13.9,30.29,SE,136,3.0,4.0,87,0.00,,,0.00,WeatherCatV1.10B1784,2013-01-01 17:20:00,
2013-01-01 11:25:00,17.3,14.1,30.29,ESE,113,1.0,3.0,87,0.00,,,0.00,WeatherCatV1.10B1784,2013-01-01 17:25:00,
2013-01-01 11:30:00,17.5,14.6,30.29,SE,131,0.0,4.0,88,0.00,,,0.00,WeatherCatV1.10B1784,2013-01-01 17:30:00,
2013-01-01 11:35:00,17.7,14.5,30.28,SSE,148,1.0,3.0,87,0.00,,,0.00,WeatherCatV1.10B1784,2013-01-01 17:35:00,
2013-01-01 11:40:00,17.9,14.7,30.28,ESE,113,4.0,5.0,87,0.00,,,0.00,WeatherCatV1.10B1784,2013-01-01 17:40:00,
2013-01-01 11:45:00,18.0,14.8,30.28,SE,125,7.0,7.0,87,0.00,,,0.00,WeatherCatV1.10B1784,2013-01-01 17:45:00,
2013-01-01 11:50:00,18.0,14.8,30.27,ESE,114,2.0,8.0,87,0.00,,,0.00,WeatherCatV1.10B1784,2013-01-01 17:50:00,
2013-01-01 11:55:00,18.1,14.9,30.27,SSE,150,4.0,7.0,87,0.00,,,0.00,WeatherCatV1.10B1784,2013-01-01 17:55:00,
2013-01-01 12:00:00,18.3,15.1,30.27,SE,131,4.0,6.0,87,0.00,,,0.00,WeatherCatV1.10B1784,2013-01-01 18:00:00,
2013-01-01 12:05:00,18.4,15.2,30.27,SSE,147,2.0,5.0,87,0.00,,,0.00,WeatherCatV1.10B1784,2013-01-01 18:05:00,
2013-01-01 12:10:00,18.5,15.3,30.27,South,190,1.0,6.0,87,0.00,,,0.00,WeatherCatV1.10B1784,2013-01-01 18:10:00,
2013-01-01 12:15:00,18.6,15.4,30.27,SSE,163,2.0,4.0,87,0.00,,,0.00,WeatherCatV1.10B1784,2013-01-01 18:15:00,
2013-01-01 12:20:00,18.7,15.7,30.26,ESE,116,1.0,5.0,88,0.00,,,0.00,WeatherCatV1.10B1784,2013-01-01 18:20:00,
2013-01-01 12:25:00,18.8,15.8,30.26,SSE,162,0.0,2.0,88,0.00,,,0.00,WeatherCatV1.10B1784,2013-01-01 18:25:00,
2013-01-01 12:30:00,18.9,15.9,30.26,South,175,3.0,4.0,88,0.00,,,0.00,WeatherCatV1.10B1784,2013-01-01 18:30:00,
2013-01-01 12:35:00,18.9,16.2,30.26,SSE,161,2.0,4.0,89,0.00,,,0.00,WeatherCatV1.10B1784,2013-01-01 18:35:00,
2013-01-01 12:40:00,18.9,16.2,30.26,SSE,156,6.0,6.0,89,0.00,,,0.00,WeatherCatV1.10B1784,2013-01-01 18:40:00,
2013-01-01 12:45:00,18.9,16.5,30.25,South,172,2.0,7.0,90,0.00,,,0.00,WeatherCatV1.10B1784,2013-01-01 18:45:00,
2013-01-01 12:50:00,19.0,16.6,30.25,ESE,123,1.0,4.0,90,0.00,,,0.00,WeatherCatV1.10B1784,2013-01-01 18:50:00,
2013-01-01 12:55:00,19.2,16.8,30.25,SSE,168,2.0,4.0,90,0.00,,,0.00,WeatherCatV1.10B1784,2013-01-01 18:55:00,
2013-01-01 13:00:00,19.5,16.8,30.25,South,182,1.0,5.0,89,0.00,,,0.00,WeatherCatV1.10B1784,2013-01-01 19:00:00,
2013-01-01 13:05:00,19.5,16.8,30.25,SSE,147,3.0,8.0,89,0.00,,,0.00,WeatherCatV1.10B1784,2013-01-01 19:05:00,
2013-01-01 13:10:00,19.6,16.6,30.24,SSE,159,2.0,5.0,88,0.00,,,0.00,WeatherCatV1.10B1784,2013-01-01 19:10:00,
2013-01-01 13:15:00,19.7,16.7,30.24,South,175,5.0,7.0,88,0.00,,,0.00,WeatherCatV1.10B1784,2013-01-01 19:15:00,
2013-01-01 13:20:00,19.8,16.8,30.24,ESE,112,4.0,7.0,88,0.00,,,0.00,WeatherCatV1.10B1784,2013-01-01 19:20:00,
2013-01-01 13:25:00,19.9,16.9,30.24,SSE,148,3.0,7.0,88,0.00,,,0.00,WeatherCatV1.10B1784,2013-01-01 19:25:00,
2013-01-01 13:30:00,20.0,17.0,30.24,SSE,168,2.0,5.0,88,0.00,,,0.00,WeatherCatV1.10B1784,2013-01-01 19:30:00,
2013-01-01 13:35:00,20.1,17.1,30.23,ESE,117,0.0,4.0,88,0.00,,,0.00,WeatherCatV1.10B1784,2013-01-01 19:35:00,
2013-01-01 13:40:00,20.4,17.7,30.23,ESE,111,2.0,4.0,89,0.00,,,0.00,WeatherCatV1.10B1784,2013-01-01 19:40:00,
2013-01-01 13:45:00,20.6,17.9,30.22,South,172,1.0,6.0,89,0.00,,,0.00,WeatherCatV1.10B1784,2013-01-01 19:45:00,
2013-01-01 13:50:00,20.8,18.1,30.22,South,170,2.0,3.0,89,0.00,,,0.00,WeatherCatV1.10B1784,2013-01-01 19:50:00,
2013-01-01 13:55:00,21.1,18.4,30.22,South,179,4.0,4.0,89,0.00,,,0.00,WeatherCatV1.10B1784,2013-01-01 19:55:00,
2013-01-01 14:00:00,21.1,18.4,30.22,SSW,204,0.0,7.0,89,0.00,,,0.00,WeatherCatV1.10B1784,2013-01-01 20:00:00,
2013-01-01 14:05:00,21.2,18.5,30.23,SSW,197,0.0,4.0,89,0.00,,,0.00,WeatherCatV1.10B1784,2013-01-01 20:05:00,
2013-01-01 14:10:00,21.3,18.6,30.22,SSW,196,3.0,4.0,89,0.00,,,0.00,WeatherCatV1.10B1784,2013-01-01 20:10:00,
2013-01-01 14:15:00,21.4,18.7,30.22,SE,144,3.0,9.0,89,0.00,,,0.00,WeatherCatV1.10B1784,2013-01-01 20:15:00,
2013-01-01 14:20:00,21.5,18.8,30.22,SSE,164,2.0,6.0,89,0.00,,,0.00,WeatherCatV1.10B1784,2013-01-01 20:20:00,
2013-01-01 14:25:00,21.3,18.6,30.22,ESE,122,4.0,8.0,89,0.00,,,0.00,WeatherCatV1.10B1784,2013-01-01 20:25:00,
2013-01-01 14:30:00,21.3,18.6,30.21,SSW,204,1.0,6.0,89,0.00,,,0.00,WeatherCatV1.10B1784,2013-01-01 20:30:00,
2013-01-01 14:35:00,21.3,18.6,30.21,SSW,199,2.0,6.0,89,0.00,,,0.00,WeatherCatV1.10B1784,2013-01-01 20:35:00,
2013-01-01 14:40:00,21.3,18.6,30.21,South,172,3.0,9.0,89,0.00,,,0.00,WeatherCatV1.10B1784,2013-01-01 20:40:00,
2013-01-01 14:45:00,21.1,18.4,30.21,South,183,3.0,7.0,89,0.00,,,0.00,WeatherCatV1.10B1784,2013-01-01 20:45:00,
2013-01-01 14:50:00,21.1,18.4,30.21,South,174,2.0,2.0,89,0.00,,,0.00,WeatherCatV1.10B1784,2013-01-01 20:50:00,
2013-01-01 14:55:00,21.1,18.4,30.21,SSE,162,1.0,7.0,89,0.00,,,0.00,WeatherCatV1.10B1784,2013-01-01 20:55:00,
2013-01-01 15:00:00,21.1,18.4,30.21,South,188,6.0,7.0,89,0.00,,,0.00,WeatherCatV1.10B1784,2013-01-01 21:00:00,
2013-01-01 15:05:00,21.0,18.3,30.21,SE,139,2.0,4.0,89,0.00,,,0.00,WeatherCatV1.10B1784,2013-01-01 21:05:00,
2013-01-01 15:10:00,21.0,18.5,30.20,SSE,168,2.0,5.0,90,0.00,,,0.00,WeatherCatV1.10B1784,2013-01-01 21:10:00,
2013-01-01 15:15:00,21.0,18.5,30.20,SSE,168,1.0,6.0,90,0.00,,,0.00,WeatherCatV1.10B1784,2013-01-01 21:15:00,
2013-01-01 15:20:00,21.0,18.3,30.20,South,182,3.0,8.0,89,0.00,,,0.00,WeatherCatV1.10B1784,2013-01-01 21:20:00,
2013-01-01 15:25:00,20.9,18.2,30.21,South,174,2.0,3.0,89,0.00,,,0.00,WeatherCatV1.10B1784,2013-01-01 21:25:00,
2013-01-01 15:30:00,20.9,18.2,30.20,South,179,1.0,5.0,89,0.00,,,0.00,WeatherCatV1.10B1784,2013-01-01 21:30:00,
2013-01-01 15:35:00,21.0,18.5,30.20,ESE,116,0.0,0.0,90,0.00,,,0.00,WeatherCatV1.10B1784,2013-01-01 21:35:00,
2013-01-01 15:40:00,21.1,18.6,30.20,SE,136,2.0,2.0,90,0.00,,,0.00,WeatherCatV1.10B1784,2013-01-01 21:40:00,
2013-01-01 15:45:00,21.1,18.6,30.20,SSE,155,2.0,4.0,90,0.00,,,0.00,WeatherCatV1.10B1784,2013-01-01 21:45:00,
2013-01-01 15:50:00,21.1,18.6,30.20,SSE,157,1.0,5.0,90,0.00,,,0.00,WeatherCatV1.10B1784,2013-01-01 21:50:00,
2013-01-01 15:55:00,21.1,18.6,30.20,ESE,113,0.0,5.0,90,0.00,,,0.00,WeatherCatV1.10B1784,2013-01-01 21:55:00,
2013-01-01 16:00:00,21.2,18.7,30.20,SSE,152,1.0,1.0,90,0.00,,,0.00,WeatherCatV1.10B1784,2013-01-01 22:00:00,
2013-01-01 16:05:00,21.2,18.7,30.20,South,172,0.0,3.0,90,0.00,,,0.00,WeatherCatV1.10B1784,2013-01-01 22:05:00,
2013-01-01 16:10:00,21.3,18.8,30.20,SSE,151,2.0,3.0,90,0.00,,,0.00,WeatherCatV1.10B1784,2013-01-01 22:10:00,
2013-01-01 16:15:00,21.3,18.8,30.20,SSW,209,1.0,5.0,90,0.00,,,0.00,WeatherCatV1.10B1784,2013-01-01 22:15:00,
2013-01-01 16:20:00,21.3,18.8,30.20,South,185,1.0,2.0,90,0.00,,,0.00,WeatherCatV1.10B1784,2013-01-01 22:20:00,
2013-01-01 16:25:00,21.4,18.9,30.19,SSE,165,2.0,4.0,90,0.00,,,0.00,WeatherCatV1.10B1784,2013-01-01 22:25:00,
2013-01-01 16:30:00,21.4,18.9,30.19,ESE,119,7.0,7.0,90,0.00,,,0.00,WeatherCatV1.10B1784,2013-01-01 22:30:00,
2013-01-01 16:35:00,21.5,19.0,30.19,ESE,123,0.0,2.0,90,0.00,,,0.00,WeatherCatV1.10B1784,2013-01-01 22:35:00,
2013-01-01 16:40:00,21.5,19.0,30.19,ESE,122,1.0,2.0,90,0.00,,,0.00,WeatherCatV1.10B1784,2013-01-01 22:40:00,
2013-01-01 16:45:00,21.4,18.9,30.19,South,183,3.0,5.0,90,0.00,,,0.00,WeatherCatV1.10B1784,2013-01-01 22:45:00,
2013-01-01 16:50:00,21.3,18.8,30.19,ESE,110,0.0,5.0,90,0.00,,,0.00,WeatherCatV1.10B1784,2013-01-01 22:50:00,
2013-01-01 16:55:00,21.2,18.7,30.18,South,174,0.0,2.0,90,0.00,,,0.00,WeatherCatV1.10B1784,2013-01-01 22:55:00,
2013-01-01 17:00:00,21.1,18.6,30.18,SE,124,2.0,4.0,90,0.00,,,0.00,WeatherCatV1.10B1784,2013-01-01 23:00:00,
2013-01-01 17:05:00,21.0,18.5,30.18,South,187,0.0,2.0,90,0.00,,,0.00,WeatherCatV1.10B1784,2013-01-01 23:05:00,
2013-01-01 17:10:00,20.9,18.4,30.18,SE,144,2.0,3.0,90,0.00,,,0.00,WeatherCatV1.10B1784,2013-01-01 23:10:00,
2013-01-01 17:15:00,20.8,18.3,30.17,ESE,123,3.0,6.0,90,0.00,,,0.00,WeatherCatV1.10B1784,2013-01-01 23:15:00,
2013-01-01 17:20:00,20.7,18.2,30.17,ESE,123,2.0,2.0,90,0.00,,,0.00,WeatherCatV1.10B1784,2013-01-01 23:20:00,
2013-01-01 17:25:00,20.6,18.4,30.17,ESE,120,2.0,5.0,91,0.00,,,0.00,WeatherCatV1.10B1784,2013-01-01 23:25:00,
2013-01-01 17:30:00,20.6,18.4,30.17,ESE,114,1.0,7.0,91,0.00,,,0.00,WeatherCatV1.10B1784,2013-01-01 23:30:00,
2013-01-01 17:35:00,20.6,18.4,30.17,SE,134,1.0,2.0,91,0.00,,,0.00,WeatherCatV1.10B1784,2013-01-01 23:35:00,
2013-01-01 17:40:00,20.6,18.4,30.17,SE,126,1.0,5.0,91,0.00,,,0.00,WeatherCatV1.10B1784,2013-01-01 23:40:00,
2013-01-01 17:45:00,20.5,18.3,30.17,ESE,116,2.0,4.0,91,0.00,,,0.00,WeatherCatV1.10B1784,2013-01-01 23:45:00,
2013-01-01 17:50:00,20.5,18.3,30.17,SE,135,2.0,5.0,91,0.00,,,0.00,WeatherCatV1.10B1784,2013-01-01 23:50:00,
2013-01-01 17:55:00,20.5,18.3,30.17,ESE,117,2.0,2.0,91,0.00,,,0.00,WeatherCatV1.10B1784,2013-01-01 23:55:00,
2013-01-01 18:00:00,20.6,18.7,30.17,ESE,117,2.0,2.0,92,0.00,,,0.00,WeatherCatV1.10B1784,2013-01-02 00:00:00,
2013-01-01 18:05:00,20.6,18.7,30.16,SE,132,0.0,2.0,92,0.00,,,0.00,WeatherCatV1.10B1784,2013-01-02 00:05:00,
2013-01-01 18:10:00,20.6,18.7,30.16,ESE,117,4.0,4.0,92,0.00,,,0.00,WeatherCatV1.10B1784,2013-01-02 00:10:00,
2013-01-01 18:15:00,20.6,18.7,30.16,SE,145,3.0,3.0,92,0.00,,,0.00,WeatherCatV1.10B1784,2013-01-02 00:15:00,
2013-01-01 18:20:00,20.6,18.7,30.16,SE,140,2.0,2.0,92,0.00,,,0.00,WeatherCatV1.10B1784,2013-01-02 00:20:00,
2013-01-01 18:25:00,20.6,18.7,30.16,SE,131,3.0,4.0,92,0.00,,,0.00,WeatherCatV1.10B1784,2013-01-02 00:25:00,
2013-01-01 18:30:00,20.6,18.7,30.16,SE,131,0.0,3.0,92,0.00,,,0.00,WeatherCatV1.10B1784,2013-01-02 00:30:00,
2013-01-01 18:35:00,20.6,18.4,30.16,SE,144,0.0,2.0,91,0.00,,,0.00,WeatherCatV1.10B1784,2013-01-02 00:35:00,
2013-01-01 18:40:00,20.6,18.4,30.16,ESE,120,1.0,4.0,91,0.00,,,0.00,WeatherCatV1.10B1784,2013-01-02 00:40:00,
2013-01-01 18:45:00,20.6,18.4,30.15,SSE,164,1.0,2.0,91,0.00,,,0.00,WeatherCatV1.10B1784,2013-01-02 00:45:00,
2013-01-01 18:50:00,20.5,18.3,30.15,SE,128,1.0,3.0,91,0.00,,,0.00,WeatherCatV1.10B1784,2013-01-02 00:50:00,
2013-01-01 18:55:00,20.4,18.2,30.15,SE,135,0.0,4.0,91,0.00,,,0.00,WeatherCatV1.10B1784,2013-01-02 00:55:00,
2013-01-01 19:00:00,20.4,18.2,30.15,ESE,114,1.0,4.0,91,0.00,,,0.00,WeatherCatV1.10B1784,2013-01-02 01:00:00,
2013-01-01 19:05:00,20.3,18.1,30.15,SE,142,0.0,3.0,91,0.00,,,0.00,WeatherCatV1.10B1784,2013-01-02 01:05:00,
2013-01-01 19:10:00,20.1,17.9,30.15,SE,137,2.0,5.0,91,0.00,,,0.00,WeatherCatV1.10B1784,2013-01-02 01:10:00,
2013-01-01 19:15:00,19.9,17.7,30.15,South,175,1.0,7.0,91,0.00,,,0.00,WeatherCatV1.10B1784,2013-01-02 01:15:00,
2013-01-01 19:20:00,19.7,17.5,30.15,South,176,3.0,3.0,91,0.00,,,0.00,WeatherCatV1.10B1784,2013-01-02 01:20:00,
2013-01-01 19:25:00,19.4,17.2,30.14,ESE,121,3.0,4.0,91,0.00,,,0.00,WeatherCatV1.10B1784,2013-01-02 01:25:00,
2013-01-01 19:30:00,19.1,16.9,30.15,SE,128,2.0,4.0,91,0.00,,,0.00,WeatherCatV1.10B1784,2013-01-02 01:30:00,
2013-01-01 19:35:00,18.9,17.0,30.14,SE,137,1.0,2.0,92,0.00,,,0.00,WeatherCatV1.10B1784,2013-01-02 01:35:00,
2013-01-01 19:40:00,18.7,16.8,30.14,South,174,2.0,5.0,92,0.00,,,0.00,WeatherCatV1.10B1784,2013-01-02 01:40:00,
2013-01-01 19:45:00,18.6,16.7,30.14,SSE,168,3.0,7.0,92,0.00,,,0.00,WeatherCatV1.10B1784,2013-01-02 01:45:00,
2013-01-01 19:50:00,18.4,16.5,30.13,ESE,108,1.0,3.0,92,0.00,,,0.00,WeatherCatV1.10B1784,2013-01-02 01:50:00,
2013-01-01 19:55:00,18.3,16.4,30.14,ESE,117,1.0,5.0,92,0.00,,,0.00,WeatherCatV1.10B1784,2013-01-02 01:55:00,
2013-01-01 20:00:00,18.2,16.3,30.14,SSW,195,2.0,7.0,92,0.00,,,0.00,WeatherCatV1.10B1784,2013-01-02 02:00:00,
2013-01-01 20:05:00,18.1,16.2,30.13,SSE,153,0.0,3.0,92,0.00,,,0.00,WeatherCatV1.10B1784,2013-01-02 02:05:00,
2013-01-01 20:10:00,17.9,16.0,30.13,SSE,153,3.0,5.0,92,0.00,,,0.00,WeatherCatV1.10B1784,2013-01-02 02:10:00,
2013-01-01 20:15:00,17.7,15.8,30.13,SSE,153,3.0,5.0,92,0.00,,,0.00,WeatherCatV1.10B1784,2013-01-02 02:15:00,
2013-01-01 20:20:00,17.6,15.7,30.13,SSE,154,2.0,3.0,92,0.00,,,0.00,WeatherCatV1.10B1784,2013-01-02 02:20:00,
2013-01-01 20:25:00,17.5,15.8,30.12,ESE,110,2.0,4.0,93,0.00,,,0.00,WeatherCatV1.10B1784,2013-01-02 02:25:00,
2013-01-01 20:30:00,17.4,15.7,30.12,ESE,114,2.0,6.0,93,0.00,,,0.00,WeatherCatV1.10B1784,2013-01-02 02:30:00,
2013-01-01 20:35:00,17.4,15.7,30.12,ESE,108,1.0,2.0,93,0.00,,,0.00,WeatherCatV1.10B1784,2013-01-02 02:35:00,
2013-01-01 20:40:00,17.3,15.6,30.12,ESE,122,1.0,5.0,93,0.00,,,0.00,WeatherCatV1.10B1784,2013-01-02 02:40:00,
2013-01-01 20:45:00,17.3,15.6,30.12,SE,142,2.0,6.0,93,0.00,,,0.00,WeatherCatV1.10B1784,2013-01-02 02:45:00,
2013-01-01 20:50:00,17.2,15.5,30.12,South,170,3.0,5.0,93,0.00,,,0.00,WeatherCatV1.10B1784,2013-01-02 02:50:00,
2013-01-01 20:55:00,17.3,15.6,30.11,SSW,193,1.0,5.0,93,0.00,,,0.00,WeatherCatV1.10B1784,2013-01-02 02:55:00,
2013-01-01 21:00:00,17.3,15.6,30.11,ESE,118,1.0,2.0,93,0.00,,,0.00,WeatherCatV1.10B1784,2013-01-02 03:00:00,
2013-01-01 21:05:00,17.2,15.5,30.11,SE,138,0.0,4.0,93,0.00,,,0.00,WeatherCatV1.10B1784,2013-01-02 03:05:00,
2013-01-01 21:10:00,17.1,15.4,30.11,SSE,164,0.0,7.0,93,0.00,,,0.00,WeatherCatV1.10B1784,2013-01-02 03:10:00,
2013-01-01 21:15:00,17.1,15.4,30.11,SE,134,1.0,3.0,93,0.00,,,0.00,WeatherCatV1.10B1784,2013-01-02 03:15:00,
2013-01-01 21:20:00,17.0,15.3,30.10,SSE,164,0.0,4.0,93,0.00,,,0.00,WeatherCatV1.10B1784,2013-01-02 03:20:00,
2013-01-01 21:25:00,17.0,15.3,30.10,SSW,202,0.0,1.0,93,0.00,,,0.00,WeatherCatV1.10B1784,2013-01-02 03:25:00,
2013-01-01 21:30:00,17.0,15.3,30.11,SSW,201,1.0,1.0,93,0.00,,,0.00,WeatherCatV1.10B1784,2013-01-02 03:30:00,
2013-01-01 21:35:00,17.0,15.3,30.10,SSE,156,0.0,3.0,93,0.00,,,0.00,WeatherCatV1.10B1784,2013-01-02 03:35:00,
2013-01-01 21:40:00,16.8,14.9,30.10,SSE,147,0.0,2.0,92,0.00,,,0.00,WeatherCatV1.10B1784,2013-01-02 03:40:00,
2013-01-01 21:45:00,16.8,15.1,30.10,SE,144,0.0,5.0,93,0.00,,,0.00,WeatherCatV1.10B1784,2013-01-02 03:45:00,
2013-01-01 21:50:00,16.7,14.8,30.10,SSE,158,2.0,4.0,92,0.00,,,0.00,WeatherCatV1.10B1784,2013-01-02 03:50:00,
2013-01-01 21:55:00,16.7,15.0,30.10,SSW,199,1.0,1.0,93,0.00,,,0.00,WeatherCatV1.10B1784,2013-01-02 03:55:00,
2013-01-01 22:00:00,16.6,14.7,30.09,ESE,120,0.0,3.0,92,0.00,,,0.00,WeatherCatV1.10B1784,2013-01-02 04:00:00,
2013-01-01 22:05:00,16.5,14.6,30.09,ESE,120,1.0,3.0,92,0.00,,,0.00,WeatherCatV1.10B1784,2013-01-02 04:05:00,
2013-01-01 22:10:00,16.4,14.5,30.10,SSE,158,0.0,4.0,92,0.00,,,0.00,WeatherCatV1.10B1784,2013-01-02 04:10:00,
2013-01-01 22:15:00,16.3,14.4,30.09,ESE,113,1.0,4.0,92,0.00,,,0.00,WeatherCatV1.10B1784,2013-01-02 04:15:00,
2013-01-01 22:20:00,16.2,14.3,30.09,ESE,111,0.0,1.0,92,0.00,,,0.00,WeatherCatV1.10B1784,2013-01-02 04:20:00,
2013-01-01 22:25:00,16.1,14.2,30.10,SSE,163,0.0,4.0,92,0.00,,,0.00,WeatherCatV1.10B1784,2013-01-02 04:25:00,
2013-01-01 22:30:00,16.0,14.1,30.10,SSE,152,0.0,3.0,92,0.00,,,0.00,WeatherCatV1.10B1784,2013-01-02 04:30:00,
2013-01-01 22:35:00,16.0,14.1,30.09,SSW,196,0.0,3.0,92,0.00,,,0.00,WeatherCatV1.10B1784,2013-01-02 04:35:00,
2013-01-01 22:40:00,16.0,14.1,30.09,SSW,199,1.0,3.0,92,0.00,,,0.00,WeatherCatV1.10B1784,2013-01-02 04:40:00,
2013-01-01 22:45:00,16.1,14.4,30.09,SSE,152,0.0,1.0,93,0.00,,,0.00,WeatherCatV1.10B1784,2013-01-02 04:45:00,
2013-01-01 22:50:00,16.1,14.2,30.09,SE,145,0.0,3.0,92,0.00,,,0.00,WeatherCatV1.10B1784,2013-01-02 04:50:00,
2013-01-01 22:55:00,16.1,14.2,30.09,South,181,0.0,3.0,92,0.00,,,0.00,WeatherCatV1.10B1784,2013-01-02 04:55:00,
2013-01-01 23:00:00,16.0,14.1,30.09,South,176,0.0,3.0,92,0.00,,,0.00,WeatherCatV1.10B1784,2013-01-02 05:00:00,
2013-01-01 23:05:00,15.9,14.0,30.09,ESE,118,0.0,3.0,92,0.00,,,0.00,WeatherCatV1.10B1784,2013-01-02 05:05:00,
2013-01-01 23:10:00,15.8,13.9,30.08,ESE,116,2.0,4.0,92,0.00,,,0.00,WeatherCatV1.10B1784,2013-01-02 05:10:00,
2013-01-01 23:15:00,15.8,13.9,30.08,ESE,116,0.0,2.0,92,0.00,,,0.00,WeatherCatV1.10B1784,2013-01-02 05:15:00,
2013-01-01 23:20:00,15.8,13.9,30.08,ESE,116,2.0,2.0,92,0.00,,,0.00,WeatherCatV1.10B1784,2013-01-02 05:20:00,
2013-01-01 23:25:00,15.8,13.9,30.08,ESE,115,1.0,2.0,92,0.00,,,0.00,WeatherCatV1.10B1784,2013-01-02 05:25:00,
2013-01-01 23:30:00,15.7,13.8,30.08,ESE,118,1.0,2.0,92,0.00,,,0.00,WeatherCatV1.10B1784,2013-01-02 05:30:00,
2013-01-01 23:35:00,15.7,13.8,30.07,ESE,111,0.0,5.0,92,0.00,,,0.00,WeatherCatV1.10B1784,2013-01-02 05:35:00,
2013-01-01 23:40:00,15.7,13.8,30.07,ESE,118,1.0,4.0,92,0.00,,,0.00,WeatherCatV1.10B1784,2013-01-02 05:40:00,
2013-01-01 23:45:00,15.7,13.8,30.07,SE,142,1.0,3.0,92,0.00,,,0.00,WeatherCatV1.10B1784,2013-01-02 05:45:00,
2013-01-01 23:50:00,15.8,13.9,30.07,SE,140,2.0,4.0,92,0.00,,,0.00,WeatherCatV1.10B1784,2013-01-02 05:50:00,
2013-01-01 23:55:00,15.8,13.9,30.07,SE,141,1.0,1.0,92,0.00,,,0.00,WeatherCatV1.10B1784,2013-01-02 05:55:00,